Погода в Слуцке

Погода в Слуцке : погода сейчас, прогноз погоды и архив. Всё, что Вы хотите узнать о погоде в Слуцке!

Хотите узнать прогноз погоды в Слуцке? Тогда Вам сюда: Погода в Слуцке

Поиск расширенной информации на нашем сайте:

Другие новости

Новости СМИ2

Главная страница сайта

Новости сайта

02.10.2013

Напоминаем, что на нашем новом сайте вы можете получить высокодетализированные прогнозы погоды по пунктам России, СНГ и мира (включающие важные для авиации метеовеличины, такие как направление и скорость ветра, видимость, явления погоды, количество и форма облачности, нижняя и верхняя граница облачности), а также ознакомиться с разнообразными материалами по авиационной метеорологии и подборкой полезных ссылок на эту тему.

Сайт Метеоцентр.Азия посвящён разработке технологий оптимизации авиаметеорологического обслуживания, включая проектирование и перспективное создание нескольких автоматизированных авиаметеорологических систем:
- система выпуска высокодетальных прогностических карт явлений погоды для нижнего воздушного пространства по России и ближнему зарубежью;
- система верификации прогнозов TAF (выпускаемых синоптиками официальных АМСГ РФ и ближнего зарубежья) и AUTOTAF (выпускаемых сайтом Метеоцентр.Азия) - выявление ошибок, онлайн-сопоставление с фактической погодой METAR, автоматическое внесение коррективов в прогнозы при резком отклонении фактической погоды от прогноза, подсчёт оправдываемости прогнозов по элементам и в целом;
- система обработки, анализа и отображения авиаметеорологической информации для применения провайдерами метеорологической информации.


Погода в Слуцке - сегодня

Время (UTC), дата Ветер
(°,м/с) 
Видим.   Явления Облачность Т
(°С)
Тd
(°С)
f(%) Тe
(°С)
Pmin
(гПа)
dP
(гПа)
Po
(мм)
O2
(г/м3)
Тmin Tmax R s Состояние
почвы
06 23.09.16 300 (СЗ) 12000 м    9/9 1200 м 
[Sc]
+7.6 +6.5 93 +6  1016  0.9  747  292  +4.2         
09 23.09.16 320 (СЗ) 15000 м    9/9 1230 м 
[Sc]
+10.6 +7.4 81 +9  1016.7  748  289           
12 23.09.16 320 (СЗ) 15000 м    9/9 600 м 
[Sc]
+12.8 +4.8 58 +12  1017.3  0.7  748  287           
15 23.09.16 320 (СЗ) 2{11}  14000 м  в посл. час ливневой дождь  8/8 600 м 
[Sc]
+10.2 +8.4 89 +10  1018.6  1.1  749  290         
18 23.09.16 290 (З) 12000 м  {ливн. осадки}  9/9 840 м 
[Sc]
+9.2 +7.7 90 +9  1019.8  1.1  750  291    +13.6     
21 23.09.16 270 (З) 10 км    9/9 600 м 
[Sc]
+9 +7.7 92 +8  1020.3  0.5  750  291           
00 24.09.16 260 (З) 9000 м  дымка  1/0 средняя 
[Ac trans]
+7.1 +6.4 95 +6  1020.6  0.1  751  294           
03 24.09.16 260 (З) 6000 м  дымка  9/9 900 м 
[Sc]
+7.3 +7.1 99 +7  1020.7  0.1  751  293           
06 24.09.16 240 (ЮЗ) 3500 м  дымка  10/10 210 м 
[St]
+9 +8.8 99 +8  1020.6  0.1  751  291  +5.9         
09 24.09.16 250 (З) 9000 м  дымка  9/9 720 м 
[Sc]
+12.2 +10 86 +13  1020.2  -0.1  751  288           
12 24.09.16 310 (СЗ) 12000 м    9/9 660 м 
[Sc]
+13.8 +10.2 79 +14  1020.1  751  286           
15 24.09.16 350 (С) 11000 м    9/8 600 м кучево-дожд., средняя 
[Cb cap|Ac trans]
+14.4 +11 80 +17  1020.3  0.2  751  285           
18 24.09.16 260 (З) 7000 м  дымка  5/0 верхняя 
[Ci sp]
+9.2 +8.6 96 +9  1021.9  1.2  752  291    +15.7       
21 24.09.16 тихо ()   0100 м  туман  ?/?  
+7.4 +7.4 100 +7  1023.2  752  294           
00 25.09.16 тихо ()   2000 м  в посл. час туман  9/9 600 м 
[Sc]
+6.4 +6.2 99 +6  1023.2  752  295           
03 25.09.16 010 (С) 1800 м  в посл. час туман  8/8 600 м 
[Sc]
+7 +6.8 99 +8  1023.6  0.4  753  295           
06 25.09.16 080 (В) 6000 м  дымка{туман}  3/3 600 м 
[Sc]
+9.9 +9.3 96 +11  1024.4  1.1  754  291  +5.1         
09 25.09.16 060 (СВ) 12000 м    8/8 600 м 
[Cu Sc]
+12.7 +7.8 72 +13  1024.2  754  289           
12 25.09.16 050 (СВ) 17000 м    9/9 1080 м 
[Sc]
+11.8 +5.6 66 +11  1024.1  -0.3  753  290           
15 25.09.16 060 (СВ) 15000 м    9/9 1300 м 
[Sc]
+11 +7 76 +11  1024.4  0.3  754  291           
18 25.09.16 080 (В) 12000 м    9/9 1320 м 
[Sc]
+10.1 +7.6 84 +11  1024.8  0.4  754  292    +13.4       
21 25.09.16 060 (СВ) 11000 м    9/9 1300 м 
[Sc]
+9.2 +6.8 85 +10  1025.4  0.5  754  293           
00 26.09.16 070 (В) 10 км    9/6 1000 м средняя 
[Sc|Ac und]
+8.6 +5.9 83 +9  1025.9  0.5  755  294           
03 26.09.16 050 (СВ) 11000 м    9/9 1080 м 
[Sc]
+8.2 +5.6 84 +9  1026  0.1  755  294           
06 26.09.16 060 (СВ) 13000 м    9/0 средняя 
[Ac und]
+8.7 +5 78 +9  1026.3  0.3  755  294  +7.4         
Время (UTC), дата Ветер
(°,м/с) 
Видим.   Явления Облачность Т
(°С)
Тd
(°С)
f(%) Тe
(°С)
Pmin
(гПа)
dP
(гПа)
Po
(мм)
O2
(г/м3)
Тmin Tmax R s Состояние
почвы

Для получения пояснительной информации подведите курсор к названию столбца.

ПОГОДА в Слуцке - архив

Всё, что Вы хотите узнать о погоде в Слуцке - удобно и подробно!

Выберите нужную дату (начиная с 1 января 2015* года) и нажмите кнопку "Найти".
Будут отображены архивные сводки погоды по пункту Слуцк, начиная с указанной даты.


Отображать данные в формате CSV (для использования в таблицах Excel)


Внимание! Наш архив погоды предназначен исключительно для личного некоммерческого использования в познавательных целях. Если Вам необходимы официальные справки о состоянии погоды (для производственных, юридических, коммерческих и т.п. целей), обращайтесь в органы Росгидромета.

*Примечание: данная дата относится к архиву по метеостанциям СССР (Россия, СНГ, Балтия).
Архив по метеостанциям Зарубежной Европы и Азии (кроме Китая) хранится 10 дней, по другим регионам земного шара (Китай, Африка, Америка, Австралия, Океания) - 1 день.

Слуцк - район местоположения метеостанции


Название, широта, долгота, высота метеостанции:
Слуцк 53°ш. 27.6°д. 162 м над ур. моря [Беларусь]

Дополнительная информация

В oтличие oт бoльшинства пoгoдных сайтoв мы публикуем пoдрoбную метеoинфoрмацию в детальнoм прoфессиoнальнoм фoрмате.

Характеристики температуры и влажнoсти вoздуха измеряются на высoте 2 м в тени вдали oт зданий и деревьев.
Скoрoсть ветра измеряется на высoте 10 м (на урoвне рoста челoвека скoрoсть ветра ниже в 1.5-2 раза). Если метеoстанция нахoдится в гoрoде или в лесу, тo скoрoсть ветра занижена на 2-4 м/с пo сравнению с oткрытым местoм. Скoрoсть ветра над акватoриями крупных рек и oзёр, а также на вершинах хoлмoв на 2-5 м/с выше, чем в oбычных услoвиях.
Атмoсфернoе давление в разных тoчках местнoсти мoжет значительнo oтличаться oт давления на метеoстанции, в зависимoсти oт услoвий рельефа (при пoдъёме на 10 м давление пoнижается примернo на 1 мм рт.ст.).